GW2484 Weather Reports


Display with metric or nautical units.
time (UTC)temp
F
wind
direction
speed
MPH
gust
MPH
rain 1hr
in
rain 24hr
in
rain mn
in
humidity
%
barometer
mb
20260508170024 73 256 7.0 15.0 0.00 0.00 0.00 53 1011.9
20260508165507 73 202 6.0 15.0 0.00 0.00 0.00 53 1011.9
20260508165014 74 148 6.0 14.0 0.00 0.00 0.00 56 1011.9
20260508164533 74 192 9.0 18.0 0.00 0.00 0.00 53 1012.0
20260508164008 73 181 7.0 18.0 0.00 0.00 0.00 54 1012.1
20260508163511 72 145 7.0 17.0 0.00 0.00 0.00 53 1012.2
20260508163017 72 194 8.0 19.0 0.00 0.00 0.00 54 1012.3
20260508162512 72 194 8.0 19.0 0.00 0.00 0.00 54 1012.3
20260508162009 72 228 7.0 16.0 0.00 0.00 0.00 53 1012.3
20260508161516 72 164 7.0 16.0 0.00 0.00 0.00 56 1012.4
20260508161011 72 181 6.0 19.0 0.00 0.00 0.00 55 1012.5
20260508160507 71 197 11.0 19.0 0.00 0.00 0.00 56 1012.6
20260508160032 72 175 8.0 14.0 0.00 0.00 0.00 56 1012.5
20260508155513 72 166 7.0 19.0 0.00 0.00 0.00 56 1012.6
20260508155009 71 157 6.0 19.0 0.00 0.00 0.00 60 1012.7
20260508154527 70 142 6.0 18.0 0.00 0.00 0.00 60 1012.8
20260508154013 69 206 7.0 21.0 0.00 0.00 0.00 59 1013.0
20260508153507 69 180 8.0 22.0 0.00 0.00 0.00 59 1013.1
20260508153026 69 185 8.0 22.0 0.00 0.00 0.00 60 1013.2
20260508152509 69 167 8.0 19.0 0.00 0.00 0.00 60 1013.4
20260508152005 69 183 7.0 15.0 0.00 0.00 0.00 62 1013.4
20260508151506 68 223 9.0 15.0 0.00 0.00 0.00 61 1013.5
20260508151006 68 186 8.0 14.0 0.00 0.00 0.00 62 1013.5
20260508150510 68 152 9.0 17.0 0.00 0.00 0.00 63 1013.6
20260508150005 67 213 9.0 17.0 0.00 0.00 0.00 63 1013.6
20260508145510 67 172 9.0 16.0 0.00 0.00 0.00 64 1013.8
20260508145004 67 210 7.0 16.0 0.00 0.00 0.00 65 1013.8
20260508144504 67 164 7.0 13.0 0.00 0.00 0.00 65 1013.8
20260508144004 66 162 6.0 13.0 0.00 0.00 0.00 66 1013.9
20260508143507 66 167 6.0 12.0 0.00 0.00 0.00 68 1013.9
20260508143003 65 150 6.0 10.0 0.00 0.00 0.00 69 1013.9
20260508142504 64 174 4.0 10.0 0.00 0.00 0.00 69 1014.0
20260508142004 64 189 3.0 12.0 0.00 0.00 0.00 70 1014.1
20260508141512 64 219 5.0 13.0 0.00 0.00 0.00 69 1014.2
20260508141005 63 179 6.0 13.0 0.00 0.00 0.00 70 1014.2
20260508140503 63 167 3.0 12.0 0.00 0.00 0.00 72 1014.1
20260508140012 62 205 2.0 13.0 0.00 0.00 0.00 73 1014.1
20260508135504 62 195 5.0 13.0 0.00 0.00 0.00 73 1014.2
20260508135003 62 164 3.0 8.0 0.00 0.00 0.00 73 1014.2
20260508134514 61 166 3.0 8.0 0.00 0.00 0.00 75 1014.3
20260508134004 61 197 4.0 8.0 0.00 0.00 0.00 74 1014.3
20260508133508 60 194 3.0 8.0 0.00 0.00 0.00 75 1014.3
20260508133020 60 139 3.0 10.0 0.00 0.00 0.00 76 1014.3
20260508132505 59 150 3.0 11.0 0.00 0.00 0.00 76 1014.3
20260508132008 59 178 2.0 11.0 0.00 0.00 0.00 77 1014.3
20260508131506 58 177 3.0 5.0 0.00 0.00 0.00 78 1014.3
20260508131002 57 161 1.0 4.0 0.00 0.00 0.00 79 1014.2
20260508130506 57 201 1.0 4.0 0.00 0.00 0.00 79 1014.2
20260508130007 56 216 1.0 4.0 0.00 0.00 0.00 80 1014.3
20260508125509 56 205 1.0 7.0 0.00 0.00 0.00 81 1014.2
20260508125006 55 159 2.0 7.0 0.00 0.00 0.00 81 1014.2
20260508124503 55 164 2.0 7.0 0.00 0.00 0.00 82 1014.2
20260508124009 54 162 2.0 4.0 0.00 0.00 0.00 82 1014.1
20260508123504 54 103 0.0 4.0 0.00 0.00 0.00 82 1014.1
20260508123004 54 196 1.0 4.0 0.00 0.00 0.00 82 1014.0
20260508122507 54 170 1.0 7.0 0.00 0.00 0.00 82 1013.9
20260508122003 53 156 1.0 7.0 0.00 0.00 0.00 82 1013.9
20260508121516 53 157 2.0 7.0 0.00 0.00 0.00 82 1013.9
20260508121005 53 167 2.0 4.0 0.00 0.00 0.00 82 1013.8
20260508120503 53 165 1.0 4.0 0.00 0.00 0.00 82 1013.8
20260508120017 53 185 0.0 4.0 0.00 0.00 0.00 81 1013.8
20260508115504 53 187 1.0 4.0 0.00 0.00 0.00 81 1013.7
20260508115009 53 200 1.0 4.0 0.00 0.00 0.00 81 1013.7
20260508114516 53 202 1.0 4.0 0.00 0.00 0.00 81 1013.7
20260508114006 53 205 1.0 4.0 0.00 0.00 0.00 81 1013.7
20260508113507 53 200 1.0 4.0 0.00 0.00 0.00 80 1013.6
20260508113016 53 175 1.0 4.0 0.00 0.00 0.00 80 1013.6
20260508112502 53 164 1.0 6.0 0.00 0.00 0.00 80 1013.6
20260508112009 53 198 2.0 6.0 0.00 0.00 0.00 79 1013.5
20260508111512 53 157 2.0 8.0 0.00 0.00 0.00 79 1013.4
20260508111009 53 184 3.0 8.0 0.00 0.00 0.00 79 1013.3
20260508110508 53 193 2.0 8.0 0.00 0.00 0.00 78 1013.3
20260508110009 53 200 2.0 8.0 0.00 0.00 0.00 78 1013.2
20260508105508 53 199 2.0 7.0 0.00 0.00 0.00 78 1013.1
20260508105005 54 204 2.0 7.0 0.00 0.00 0.00 77 1013.1
20260508104506 54 181 3.0 7.0 0.00 0.00 0.00 77 1013.0
20260508104008 54 162 2.0 5.0 0.00 0.00 0.00 77 1012.9
20260508103504 54 188 2.0 6.0 0.00 0.00 0.00 76 1012.9
20260508103029 54 171 2.0 6.0 0.00 0.00 0.00 76 1012.9
20260508102509 54 206 2.0 8.0 0.00 0.00 0.00 76 1012.9
20260508102007 54 176 3.0 8.0 0.00 0.00 0.00 75 1012.9
20260508101534 54 133 3.0 8.0 0.00 0.00 0.00 75 1012.9
20260508101010 54 180 3.0 7.0 0.00 0.00 0.00 75 1012.7
20260508100503 54 168 3.0 9.0 0.00 0.00 0.00 75 1012.7
20260508100020 54 158 3.0 9.0 0.00 0.00 0.00 74 1012.7
20260508095504 54 183 4.0 8.0 0.00 0.00 0.00 74 1012.7
20260508095010 54 177 2.0 8.0 0.00 0.00 0.00 74 1012.7
20260508094519 54 163 2.0 4.0 0.00 0.00 0.00 74 1012.7
20260508094006 54 169 1.0 3.0 0.00 0.00 0.00 74 1012.7
20260508093510 54 161 1.0 4.0 0.00 0.00 0.00 74 1012.7
20260508093019 54 158 1.0 4.0 0.00 0.00 0.00 74 1012.6
20260508092503 54 173 1.0 3.0 0.00 0.00 0.00 74 1012.7
20260508092010 54 191 0.0 4.0 0.00 0.00 0.00 74 1012.7
20260508091513 54 185 1.0 4.0 0.00 0.00 0.00 75 1012.5
20260508091007 54 151 2.0 5.0 0.00 0.00 0.00 75 1012.7
20260508090507 53 170 1.0 6.0 0.00 0.00 0.00 75 1012.7
20260508090012 53 159 3.0 6.0 0.00 0.00 0.00 76 1012.8
20260508085507 53 166 1.0 2.0 0.00 0.00 0.00 76 1012.8
20260508085009 53 162 1.0 4.0 0.00 0.00 0.00 77 1012.9
20260508084509 53 162 1.0 4.0 0.00 0.00 0.00 77 1012.9
20260508084011 52 166 1.0 8.0 0.00 0.00 0.00 77 1012.8
20260508083507 52 169 1.0 8.0 0.00 0.00 0.00 77 1012.8
20260508083028 52 165 2.0 8.0 0.00 0.00 0.00 77 1012.9
20260508082508 53 160 0.0 0.0 0.00 0.00 0.00 77 1012.9
20260508082008 53 160 0.0 0.0 0.00 0.00 0.00 77 1012.9
20260508081522 53 160 0.0 0.0 0.00 0.00 0.00 77 1012.9
20260508081009 53 160 0.0 0.0 0.00 0.00 0.00 77 1013.0
20260508080507 53 160 0.0 0.0 0.00 0.00 0.00 76 1013.0
20260508080024 53 160 0.0 0.0 0.00 0.00 0.00 76 1013.1
20260508075507 53 160 0.0 0.0 0.00 0.00 0.00 76 1013.2
20260508075007 53 160 0.0 2.0 0.00 0.00 0.00 76 1013.2
20260508074522 53 160 0.0 2.0 0.00 0.00 0.00 75 1013.4
20260508074009 53 160 0.0 2.0 0.00 0.00 0.00 75 1013.4
20260508073509 54 160 0.0 0.0 0.00 0.00 0.00 74 1013.5
20260508073027 54 160 0.0 2.0 0.00 0.00 0.00 73 1013.5
20260508072510 54 160 0.0 2.0 0.00 0.00 0.00 72 1013.6
20260508072011 55 160 0.0 2.0 0.00 0.00 0.00 72 1013.7
20260508071521 55 160 0.0 2.0 0.00 0.00 0.00 71 1013.7
20260508071013 55 157 0.0 2.0 0.00 0.00 0.00 70 1013.8
20260508070512 56 157 0.0 2.0 0.00 0.00 0.00 70 1013.9
20260508070015 56 157 0.0 2.0 0.00 0.00 0.00 69 1014.0
20260508065507 56 157 0.0 2.0 0.00 0.00 0.00 68 1014.0
20260508065007 56 157 0.0 3.0 0.00 0.00 0.00 68 1014.0
20260508064535 56 156 1.0 3.0 0.00 0.00 0.00 68 1014.1
20260508064008 56 155 1.0 4.0 0.00 0.00 0.00 68 1014.0
20260508063507 57 157 1.0 4.0 0.00 0.00 0.00 67 1014.1
20260508063029 57 155 1.0 2.0 0.00 0.00 0.00 67 1014.1
20260508062513 57 155 0.0 3.0 0.00 0.00 0.00 67 1014.1
20260508062007 57 155 1.0 3.0 0.00 0.00 0.00 67 1014.1
20260508061531 57 155 1.0 2.0 0.00 0.00 0.00 67 1014.1
20260508061010 57 157 1.0 3.0 0.00 0.00 0.00 67 1014.2
20260508060508 57 159 1.0 3.0 0.00 0.00 0.00 67 1014.2
20260508060024 57 162 1.0 3.0 0.00 0.00 0.00 67 1014.2
20260508055505 57 157 0.0 4.0 0.00 0.00 0.00 67 1014.2
20260508055008 57 157 1.0 4.0 0.00 0.00 0.00 68 1014.2
20260508054525 57 165 2.0 4.0 0.00 0.00 0.00 67 1014.1
20260508054008 57 160 1.0 4.0 0.00 0.00 0.00 67 1014.1
20260508053511 57 167 1.0 3.0 0.00 0.00 0.00 67 1014.1
20260508053024 57 166 1.0 3.0 0.00 0.00 0.00 67 1014.2
20260508052508 57 149 1.0 3.0 0.00 0.00 0.00 67 1014.2
20260508052004 57 154 1.0 2.0 0.00 0.00 0.00 66 1014.3
20260508051520 57 150 1.0 2.0 0.00 0.00 0.00 66 1014.1
20260508051004 57 150 0.0 2.0 0.00 0.00 0.00 67 1014.2
20260508050504 57 150 1.0 2.0 0.00 0.00 0.00 67 1014.3
20260508050021 57 150 0.0 2.0 0.00 0.00 0.00 67 1014.3
20260508045504 57 150 0.0 3.0 0.00 0.00 0.00 67 1014.3
20260508045009 57 150 1.0 3.0 0.00 0.00 0.00 66 1014.2
20260508044516 57 150 1.0 2.0 0.00 0.00 0.00 66 1014.3
20260508044006 58 150 1.0 2.0 0.00 0.00 0.00 65 1014.3
20260508043508 58 150 0.0 2.0 0.00 0.00 0.00 65 1014.4
20260508043014 58 150 1.0 2.0 0.00 0.00 0.00 64 1014.5
20260508042504 59 150 1.0 2.0 0.00 0.00 0.00 63 1014.5
20260508042009 59 150 1.0 3.0 0.00 0.00 0.00 63 1014.5
20260508041509 59 150 1.0 3.0 0.00 0.00 0.00 62 1014.4
20260508041011 59 150 2.0 3.0 0.00 0.00 0.00 62 1014.5
20260508040507 59 158 1.0 2.0 0.00 0.00 0.00 62 1014.5
20260508040014 59 158 1.0 3.0 0.00 0.00 0.00 61 1014.4
20260508035508 60 158 1.0 3.0 0.00 0.00 0.00 61 1014.4
20260508035004 60 158 1.0 3.0 0.00 0.00 0.00 61 1014.4
20260508034504 60 162 1.0 3.0 0.00 0.00 0.00 60 1014.5
20260508034006 60 162 1.0 3.0 0.00 0.00 0.00 60 1014.6
20260508033505 60 162 1.0 3.0 0.00 0.00 0.00 60 1014.6
20260508033025 60 160 1.0 3.0 0.00 0.00 0.00 59 1014.6
20260508032505 60 152 2.0 3.0 0.00 0.00 0.00 59 1014.6
20260508032005 61 150 0.0 3.0 0.00 0.00 0.00 58 1014.6
20260508031527 61 150 1.0 3.0 0.00 0.00 0.00 58 1014.5
20260508031007 61 156 1.0 2.0 0.00 0.00 0.00 57 1014.6
20260508030504 61 156 0.0 3.0 0.00 0.00 0.00 56 1014.6
20260508030017 61 156 1.0 3.0 0.00 0.00 0.00 55 1014.5
20260508025504 61 159 1.0 2.0 0.00 0.00 0.00 55 1014.5
20260508025009 62 159 0.0 3.0 0.00 0.00 0.00 54 1014.5
20260508024516 62 159 1.0 2.0 0.00 0.00 0.00 54 1014.5
20260508024005 62 160 1.0 2.0 0.00 0.00 0.00 53 1014.4
20260508023508 63 160 0.0 3.0 0.00 0.00 0.00 53 1014.4
20260508023024 63 160 1.0 3.0 0.00 0.00 0.00 52 1014.4
20260508022505 63 158 0.0 3.0 0.00 0.00 0.00 52 1014.4
20260508022007 63 159 1.0 3.0 0.00 0.00 0.00 52 1014.3
20260508021515 64 159 1.0 3.0 0.00 0.00 0.00 51 1014.3
20260508021012 64 151 1.0 3.0 0.00 0.00 0.00 51 1014.2
20260508020508 64 151 0.0 3.0 0.00 0.00 0.00 50 1014.2
20260508020010 64 149 1.0 3.0 0.00 0.00 0.00 50 1014.3
20260508015509 64 149 1.0 4.0 0.00 0.00 0.00 49 1014.2
20260508015007 65 148 1.0 4.0 0.00 0.00 0.00 49 1014.1
20260508014517 65 174 2.0 4.0 0.00 0.00 0.00 49 1014.2
20260508014011 65 167 1.0 4.0 0.00 0.00 0.00 48 1014.1
20260508013504 66 175 2.0 4.0 0.00 0.00 0.00 47 1014.1
20260508013026 66 164 2.0 4.0 0.00 0.00 0.00 47 1014.0
20260508012509 66 169 1.0 2.0 0.00 0.00 0.00 47 1013.9
20260508012006 67 169 1.0 3.0 0.00 0.00 0.00 47 1013.8
20260508011523 67 169 0.0 3.0 0.00 0.00 0.00 46 1013.8
20260508011007 67 169 0.0 2.0 0.00 0.00 0.00 45 1013.7
20260508010511 68 169 1.0 2.0 0.00 0.00 0.00 44 1013.6
20260508010027 68 169 1.0 3.0 0.00 0.00 0.00 43 1013.7
20260508005508 68 173 2.0 3.0 0.00 0.00 0.00 43 1013.6
20260508005008 69 191 1.0 4.0 0.00 0.00 0.00 42 1013.6
20260508004524 69 200 1.0 5.0 0.00 0.00 0.00 41 1013.6
20260508004008 69 169 3.0 5.0 0.00 0.00 0.00 40 1013.6
20260508003511 69 206 0.0 4.0 0.00 0.00 0.00 40 1013.6
20260508003034 70 206 2.0 8.0 0.00 0.00 0.00 39 1013.6
20260508002508 70 156 3.0 9.0 0.00 0.00 0.00 38 1013.7
20260508002012 70 219 4.0 9.0 0.00 0.00 0.00 39 1013.7
20260508001515 70 181 3.0 9.0 0.00 0.00 0.00 39 1013.7
20260508001010 70 142 3.0 9.0 0.00 0.00 0.00 39 1013.8
20260508000513 71 160 2.0 10.0 0.00 0.00 0.00 39 1013.8
20260508000027 71 146 6.0 12.0 0.00 0.00 0.00 38 1013.9
20260507235512 71 160 5.0 12.0 0.00 0.00 0.00 38 1013.9
20260507235007 71 248 3.0 9.0 0.00 0.00 0.00 37 1013.9
20260507234528 71 179 4.0 9.0 0.00 0.00 0.00 37 1013.9
20260507234007 71 193 2.0 12.0 0.00 0.00 0.00 39 1014.0
20260507233506 72 183 4.0 12.0 0.00 0.00 0.00 37 1014.0
20260507233032 72 224 3.0 11.0 0.00 0.00 0.00 36 1014.0
20260507232507 72 179 3.0 11.0 0.00 0.00 0.00 36 1014.1
20260507232004 72 187 5.0 11.0 0.00 0.00 0.00 35 1014.1
20260507231524 73 233 3.0 9.0 0.00 0.00 0.00 35 1014.2
20260507231014 73 163 3.0 9.0 0.00 0.00 0.00 35 1014.2
20260507230512 74 215 3.0 9.0 0.00 0.00 0.00 35 1014.2
20260507230022 74 175 1.0 9.0 0.00 0.00 0.00 35 1014.2
20260507225512 74 175 3.0 9.0 0.00 0.00 0.00 34 1014.3
20260507225010 74 201 2.0 9.0 0.00 0.00 0.00 35 1014.4
20260507224507 74 202 4.0 10.0 0.00 0.00 0.00 34 1014.4
20260507224006 74 166 3.0 10.0 0.00 0.00 0.00 35 1014.4
20260507223503 74 157 5.0 10.0 0.00 0.00 0.00 35 1014.3
20260507223004 74 179 7.0 10.0 0.00 0.00 0.00 34 1014.3
20260507222506 75 191 3.0 8.0 0.00 0.00 0.00 34 1014.4
20260507222007 75 175 1.0 7.0 0.00 0.00 0.00 36 1014.4
20260507221518 75 221 1.0 7.0 0.00 0.00 0.00 33 1014.4
20260507221007 75 279 2.0 7.0 0.00 0.00 0.00 34 1014.5
20260507220508 75 262 1.0 5.0 0.00 0.00 0.00 35 1014.4
20260507220015 74 196 2.0 6.0 0.00 0.00 0.00 35 1014.5
20260507215504 74 218 3.0 10.0 0.00 0.00 0.00 34 1014.5
20260507215004 73 223 5.0 9.0 0.00 0.00 0.00 35 1014.5
20260507214512 73 208 4.0 9.0 0.00 0.00 0.00 36 1014.5
20260507214003 73 204 4.0 11.0 0.00 0.00 0.00 36 1014.6
20260507213507 73 194 3.0 11.0 0.00 0.00 0.00 36 1014.7
20260507213011 73 212 5.0 11.0 0.00 0.00 0.00 36 1014.7
20260507212503 73 194 4.0 9.0 0.00 0.00 0.00 36 1014.7
20260507212006 73 257 4.0 6.0 0.00 0.00 0.00 36 1014.9
20260507211505 73 233 0.0 11.0 0.00 0.00 0.00 38 1015.0
20260507211003 73 319 4.0 11.0 0.00 0.00 0.00 39 1015.1
20260507210507 73 261 7.0 11.0 0.00 0.00 0.00 37 1015.2
20260507210005 73 270 3.0 8.0 0.00 0.00 0.00 38 1015.3
20260507205510 73 270 3.0 9.0 0.00 0.00 0.00 37 1015.5
20260507205005 73 196 4.0 10.0 0.00 0.00 0.00 39 1015.6
20260507204504 72 335 1.0 10.0 0.00 0.00 0.00 39 1015.5
20260507204007 73 223 4.0 13.0 0.00 0.00 0.00 38 1015.7
20260507203504 72 205 5.0 13.0 0.00 0.00 0.00 38 1015.8
20260507203011 72 239 6.0 13.0 0.00 0.00 0.00 40 1015.8
20260507202507 73 197 4.0 10.0 0.00 0.00 0.00 36 1015.8
20260507202003 73 250 3.0 10.0 0.00 0.00 0.00 39 1015.9
20260507201520 73 294 2.0 9.0 0.00 0.00 0.00 38 1015.9
20260507201004 72 262 2.0 9.0 0.00 0.00 0.00 39 1015.9
20260507200504 72 225 5.0 10.0 0.00 0.00 0.00 37 1016.0
20260507200018 71 279 2.0 12.0 0.00 0.00 0.00 40 1016.0
20260507195511 71 280 4.0 12.0 0.00 0.00 0.00 39 1016.1
20260507195003 71 285 6.0 13.0 0.00 0.00 0.00 41 1016.2
20260507194516 70 205 7.0 12.0 0.00 0.00 0.00 38 1016.2
20260507194004 70 190 3.0 10.0 0.00 0.00 0.00 37 1016.3
20260507193509 71 212 4.0 11.0 0.00 0.00 0.00 37 1016.4
20260507193012 71 323 4.0 13.0 0.00 0.00 0.00 39 1016.5
20260507192510 71 285 7.0 14.0 0.00 0.00 0.00 43 1016.5
20260507192011 70 187 5.0 14.0 0.00 0.00 0.00 42 1016.5
20260507191512 70 149 6.0 14.0 0.00 0.00 0.00 39 1016.6
20260507191007 70 211 1.0 13.0 0.00 0.00 0.00 43 1016.7
20260507190507 70 223 7.0 13.0 0.00 0.00 0.00 40 1016.9
20260507190010 69 206 6.0 16.0 0.00 0.00 0.00 50 1017.0
20260507185507 69 235 7.0 16.0 0.00 0.00 0.00 41 1017.1
20260507185007 68 164 5.0 12.0 0.00 0.00 0.00 44 1017.2
20260507184511 68 194 8.0 12.0 0.00 0.00 0.00 41 1017.3
20260507184007 68 212 5.0 7.0 0.00 0.00 0.00 43 1017.2
20260507183508 68 128 1.0 8.0 0.00 0.00 0.00 44 1017.3
20260507183026 68 178 3.0 10.0 0.00 0.00 0.00 45 1017.4
20260507182506 68 152 5.0 10.0 0.00 0.00 0.00 41 1017.5
20260507182007 68 262 3.0 10.0 0.00 0.00 0.00 41 1017.6
20260507181523 68 252 5.0 12.0 0.00 0.00 0.00 43 1017.6
20260507181010 68 214 4.0 12.0 0.00 0.00 0.00 40 1017.8
20260507180504 68 299 3.0 8.0 0.00 0.00 0.00 42 1017.9
20260507180019 68 279 1.0 11.0 0.00 0.00 0.00 40 1018.0
20260507175509 68 251 4.0 11.0 0.00 0.00 0.00 39 1018.0
20260507175007 68 216 2.0 8.0 0.00 0.00 0.00 42 1018.1
20260507174517 68 198 3.0 7.0 0.00 0.00 0.00 40 1018.1
20260507174004 68 164 3.0 13.0 0.00 0.00 0.00 39 1018.1
20260507173508 67 107 3.0 13.0 0.00 0.00 0.00 42 1018.4
20260507173016 67 148 6.0 11.0 0.00 0.00 0.00 42 1018.4
20260507172505 66 177 2.0 10.0 0.00 0.00 0.00 45 1018.4
20260507172009 68 145 4.0 10.0 0.00 0.00 0.00 45 1018.5
20260507171512 67 257 3.0 8.0 0.00 0.00 0.00 41 1018.6
20260507171010 66 279 2.0 10.0 0.00 0.00 0.00 44 1018.8
20260507170507 66 202 4.0 10.0 0.00 0.00 0.00 42 1018.8